Weather in Oktyabr'sky

Russia / Kamchatka Krai     52°39′34″N   156°14′35″E
temp.,
°C
wind,
m/s
gust,
m/s
humid.,
%
clouds,
%
prec.,
mm/h
press.,
hPa
HPBL,
m
6 august, fri
fri600:00+10nw6109628 0.0 1006254
03:00+9nnw711860 0.1 1005278
06:00+7nnw914810 0.1 1006409
09:00+10nnw811714 0.0 10071023
12:00+13nw911638 0.0 10071033
15:00+14wnw9126091 0.0 10071009
18:00+13wnw9117826 0.0 1007811
21:00+11nw69935 0.0 1008293
7 august, sat
sat700:00+10nw459375 0.1 100980
03:00+9nnw2292100 0.0 100928
06:00+10nw1189100 0.0 100928
09:00+11ese1186100 0.0 1010113
12:00+12se1179100 0.0 1012486
15:00+12e227397 0.0 1012607
18:00+13ene2272100 0.0 1013459
21:00+11e4577100 0.0 1014114
8 august, sun
sun800:00+11e2383100 0.2 101657
03:00+10ne3483100 0.1 101780
06:00+8ne458256 0.1 101780
09:00+12nne44693 0.0 1018260
12:00+15nnw55640 0.0 1019780
15:00+15nw77669 0.0 1018681
18:00+14nw7972100 0.0 1018485
21:00+11nw4590100 0.0 101969
9 august, mon
mon900:00+10nw229175 0.0 101913
03:00+8sw11935 0.0 101810
06:00+8sse33921 0.0 101813
09:00+12sse21800 0.0 1018260
12:00+16wsw217129 0.0 1017740
15:00+16wnw427324 0.0 1017656
18:00+15nw44770 0.0 1016396
21:00+10nw23920 0.0 101716
10 august, tue
tue1000:00+9ssw22921 0.0 101710
03:00+9sse33943 0.0 101716
06:00+9sse33941 0.0 101723
09:00+13ene227640 0.0 1017254
12:00+17sw33615 0.0 1016804
15:00+17wsw326357 0.3 1016851
18:00+14nw5574100 0.4 1015206
21:00+12nnw348190 0.0 101681